QPF
0.00 0.00 0.00 0.00 0.00 0.00 0.00 0.00 0.00 0.00 0.00 0.00 0.00 0.00 0.00 0.00 0.00 0.00 0.00 0.00 0.00 0.00 0.00 0.00 0.00 0.00 0.00 0.00 0.00 0.00 0.00 0.00 0.00 0.00 0.00 0.00 0.00 0.00 0.00 0.00 0.00 0.01 0.00 0.00 0.00
0.00 0.00 0.00 0.00 0.00 0.00 0.00 0.00 0.00 0.00 0.00 0.00 0.00 0.00 0.00 0.00 0.00 0.00 0.00 0.00 0.00 0.00 0.00 0.00 0.00 0.00 0.00 0.00 0.00 0.00 0.00 0.00 0.00 0.00 0.00 0.00 0.00 0.00 0.00 0.00 0.00 0.01 0.00 0.00 0.00
0.00 0.00 0.00 0.00 0.00 0.00 0.00 0.00 0.00 0.00 0.00 0.00 0.00 0.00 0.00 0.00 0.00 0.00 0.00 0.00 0.00 0.00 0.00 0.00 0.00 0.00 0.00 0.00 0.00 0.00 0.00 0.00 0.00 0.00 0.00 0.00 0.00 0.00 0.00 0.00 0.00 0.00 0.00 0.01 0.02
0.00 0.00 0.00 0.00 0.00 0.00 0.00 0.00 0.00 0.00 0.00 0.00 0.00 0.00 0.00 0.00 0.00 0.00 0.00 0.00 0.00 0.00 0.00 0.00 0.00 0.00 0.00 0.00 0.00 0.00 0.00 0.00 0.00 0.00 0.00 0.00 0.00 0.00 0.00 0.00 0.00 0.00 0.00 0.00 0.02
0.00 0.00 0.00 0.00 0.00 0.00 0.00 0.00 0.00 0.00 0.00 0.00 0.00 0.00 0.00 0.00 0.00 0.00 0.00 0.00 0.00 0.00 0.00 0.00 0.00 0.00 0.00 0.00 0.00 0.00 0.00 0.00 0.00 0.00 0.00 0.00 0.00 0.00 0.00 0.00 0.00 0.00 0.00 0.00 0.00
0.00 0.00 0.00 0.00 0.00 0.00 0.00 0.00 0.00 0.00 0.00 0.00 0.00 0.01 0.00 0.00 0.00 0.00 0.00 0.00 0.00 0.00 0.00 0.00 0.00 0.00 0.00 0.00 0.00 0.00 0.00 0.00 0.00 0.00 0.00 0.00 0.00 0.00 0.00 0.00 0.00 0.00 0.00 0.00 0.00
0.00 0.00 0.00 0.00 0.00 0.00 0.00 0.00 0.00 0.00 0.00 0.00 0.00 0.01 0.00 0.00 0.00 0.00 0.00 0.00 0.00 0.00 0.00 0.00 0.00 0.00 0.00 0.00 0.00 0.00 0.00 0.00 0.00 0.00 0.00 0.00 0.00 0.00 0.00 0.00 0.00 0.00 0.00 0.00 0.00
0.00 0.00 0.00 0.00 0.00 0.00 0.00 0.00 0.00 0.00 0.00 0.00 0.01 0.00 0.00 0.00 0.00 0.00 0.00 0.00 0.00 0.00 0.00 0.00 0.00 0.00 0.00 0.00 0.00 0.00 0.00 0.00 0.00 0.00 0.00 0.00 0.00 0.00 0.00 0.00 0.00 0.00 0.00 0.00 0.00
0.00 0.00 0.00 0.00 0.00 0.00 0.00 0.00 0.00 0.00 0.00 0.00 0.01 0.00 0.00 0.00 0.00 0.00 0.00 0.00 0.00 0.00 0.00 0.00 0.00 0.00 0.00 0.00 0.00 0.00 0.00 0.00 0.00 0.00 0.00 0.00 0.00 0.00 0.00 0.00 0.00 0.00 0.00 0.00 0.00
0.00 0.00 0.00 0.00 0.00 0.00 0.00 0.00 0.00 0.00 0.00 0.00 0.00 0.00 0.00 0.00 0.00 0.00 0.00 0.00 0.00 0.00 0.00 0.00 0.00 0.00 0.00 0.00 0.00 0.00 0.00 0.00 0.00 0.00 0.00 0.00 0.00 0.00 0.00 0.00 0.00 0.00 0.00 0.00 0.00
0.00 0.00 0.00 0.00 0.00 0.00 0.00 0.00 0.00 0.00 0.00 0.00 0.00 0.00 0.00 0.00 0.00 0.00 0.00 0.00 0.00 0.00 0.00 0.00 0.00 0.00 0.00 0.00 0.00 0.00 0.00 0.00 0.00 0.00 0.00 0.00 0.00 0.00 0.00 0.00 0.00 0.00 0.00 0.00 0.00
0.00 0.00 0.00 0.00 0.00 0.00 0.00 0.00 0.00 0.00 0.00 0.00 0.00 0.00 0.00 0.00 0.00 0.00 0.00 0.00 0.00 0.00 0.00 0.00 0.00 0.00 0.00 0.00 0.00 0.00 0.00 0.00 0.00 0.00 0.00 0.00 0.00 0.00 0.00 0.00 0.00 0.00 0.00 0.00 0.00
0.00 0.00 0.00 0.00 0.00 0.00 0.00 0.00 0.00 0.00 0.00 0.00 0.00 0.00 0.00 0.00 0.00 0.00 0.00 0.00 0.00 0.00 0.00 0.00 0.00 0.00 0.00 0.00 0.00 0.00 0.00 0.00 0.00 0.00 0.00 0.00 0.00 0.00 0.00 0.00 0.00 0.00 0.00 0.00 0.00
0.00 0.00 0.00 0.00 0.00 0.00 0.00 0.00 0.00 0.00 0.00 0.00 0.00 0.00 0.00 0.00 0.00 0.00 0.00 0.00 0.00 0.00 0.00 0.00 0.00 0.00 0.00 0.00 0.00 0.00 0.00 0.00 0.00 0.00 0.00 0.00 0.00 0.00 0.00 0.00 0.00 0.00 0.00 0.00 0.00
0.00 0.00 0.00 0.01 0.00 0.00 0.00 0.00 0.00 0.00 0.00 0.00 0.00 0.00 0.00 0.00 0.00 0.00 0.00 0.00 0.00 0.00 0.00 0.00 0.00 0.00 0.00 0.00 0.00 0.00 0.00 0.00 0.00 0.00 0.00 0.00 0.00 0.00 0.00 0.00 0.00 0.00 0.00 0.00 0.00
0.00 0.00 0.00 0.00 0.00 0.00 0.00 0.00 0.00 0.01 0.01 0.00 0.00 0.00 0.00 0.00 0.00 0.00 0.00 0.00 0.00 0.00 0.00 0.00 0.00 0.00 0.00 0.00 0.00 0.00 0.00 0.00 0.00 0.00 0.00 0.00 0.00 0.00 0.00 0.00 0.00 0.00 0.00 0.00 0.00
0.00 0.00 0.00 0.00 0.00 0.00 0.00 0.00 0.01 0.01 0.00 0.00 0.00 0.00 0.00 0.00 0.00 0.00 0.00 0.00 0.00 0.00 0.00 0.00 0.00 0.00 0.00 0.00 0.00 0.00 0.00 0.00 0.00 0.00 0.00 0.00 0.00 0.00 0.00 0.00 0.00 0.00 0.00 0.00 0.00
0.00 0.00 0.00 0.00 0.00 0.00 0.00 0.00 0.00 0.00 0.00 0.00 0.01 0.02 0.00 0.00 0.00 0.00 0.00 0.00 0.00 0.00 0.00 0.00 0.00 0.00 0.00 0.00 0.00 0.00 0.00 0.00 0.00 0.00 0.00 0.00 0.00 0.00 0.00 0.00 0.00 0.00 0.00 0.00 0.00
0.00 0.00 0.00 0.00 0.00 0.00 0.00 0.00 0.00 0.00 0.00 0.00 0.01 0.01 0.01 0.00 0.00 0.00 0.00 0.00 0.00 0.00 0.00 0.00 0.00 0.00 0.00 0.00 0.00 0.00 0.00 0.00 0.00 0.00 0.00 0.00 0.00 0.00 0.00 0.00 0.00 0.00 0.00 0.00 0.00
0.00 0.00 0.00 0.00 0.00 0.00 0.00 0.00 0.00 0.00 0.01 0.01 0.07 0.06 0.03 0.01 0.00 0.00 0.00 0.00 0.00 0.00 0.00 0.00 0.00 0.00 0.00 0.00 0.00 0.00 0.00 0.00 0.00 0.00 0.00 0.00 0.00 0.00 0.00 0.00 0.00 0.00 0.00 0.00 0.00
0.00 0.00 0.00 0.00 0.00 0.00 0.00 0.00 0.00 0.00 0.00 0.03 0.07 0.07 0.02 0.01 0.00 0.00 0.00 0.00 0.00 0.00 0.00 0.00 0.01 0.01 0.00 0.00 0.00 0.00 0.00 0.00 0.00 0.00 0.00 0.00 0.00 0.00 0.00 0.00 0.00 0.00 0.00 0.00 0.00
0.00 0.00 0.00 0.00 0.03 0.06 0.04 0.07 0.04 0.02 0.00 0.00 0.06 0.08 0.01 0.00 0.00 0.00 0.00 0.00 0.00 0.00 0.00 0.00 0.00 0.02 0.00 0.00 0.00 0.00 0.00 0.00 0.01 0.01 0.00 0.00 0.00 0.00 0.00 0.00 0.00 0.00 0.00 0.00 0.00
0.00 0.00 0.00 0.01 0.05 0.06 0.06 0.04 0.03 0.03 0.06 0.09 0.10 0.10 0.04 0.01 0.00 0.01 0.00 0.00 0.00 0.00 0.00 0.00 0.01 0.03 0.03 0.01 0.00 0.00 0.00 0.00 0.00 0.00 0.01 0.01 0.00 0.00 0.00 0.00 0.00 0.00 0.00 0.00 0.00
0.02 0.00 0.02 0.07 0.08 0.04 0.03 0.01 0.03 0.03 0.05 0.10 0.12 0.08 0.02 0.01 0.00 0.00 0.00 0.00 0.00 0.01 0.00 0.00 0.00 0.01 0.03 0.02 0.00 0.00 0.00 0.00 0.00 0.01 0.00 0.00 0.00 0.00 0.00 0.00 0.00 0.00 0.00 0.00 0.00
0.03 0.01 0.06 0.04 0.02 0.01 0.03 0.02 0.01 0.01 0.03 0.07 0.09 0.07 0.04 0.00 0.00 0.00 0.01 0.01 0.00 0.01 0.01 0.00 0.02 0.01 0.00 0.00 0.00 0.00 0.01 0.00 0.00 0.00 0.00 0.00 0.00 0.00 0.00 0.00 0.00 0.00 0.00 0.00 0.00
0.07 0.08 0.07 0.02 0.02 0.01 0.02 0.05 0.03 0.02 0.02 0.02 0.04 0.05 0.04 0.01 0.00 0.00 0.01 0.01 0.01 0.00 0.00 0.00 0.00 0.00 0.00 0.00 0.00 0.00 0.00 0.00 0.00 0.00 0.00 0.00 0.00 0.00 0.00 0.00 0.00 0.00 0.00 0.00 0.00
0.06 0.05 0.05 0.01 0.02 0.01 0.03 0.03 0.01 0.01 0.01 0.00 0.01 0.01 0.02 0.01 0.00 0.00 0.00 0.00 0.00 0.00 0.00 0.00 0.00 0.00 0.00 0.00 0.00 0.00 0.00 0.00 0.00 0.00 0.00 0.00 0.00 0.00 0.00 0.00 0.00 0.00 0.00 0.00 0.00
MSLP
1020.05 1019.73 1019.49 1019.22 1018.94 1018.57 1018.23 1017.95 1017.70 1017.53 1017.32 1017.08 1016.83 1016.69 1016.39 1016.11 1015.87 1015.01 1013.21 1011.66 1011.55 1011.99 1012.34 1011.14 1010.79 1010.44 1010.15 1008.90 1008.60 1008.23 1006.19 1003.84 1003.56 1003.07 1003.08 1003.32 1003.58 1003.18 1003.77 1003.30 1003.54 1003.68 1003.94 1004.19 1004.38
1019.84 1019.64 1019.35 1018.99 1018.65 1018.36 1018.09 1017.81 1017.60 1017.31 1017.05 1016.85 1016.67 1016.37 1016.00 1015.74 1014.73 1012.38 1010.41 1011.17 1011.72 1011.86 1010.97 1010.07 1009.69 1009.76 1009.15 1008.43 1008.08 1007.21 1005.62 1004.24 1004.04 1003.43 1003.39 1003.28 1003.36 1002.93 1003.32 1003.35 1003.76 1004.02 1004.48 1004.56 1004.89
1019.67 1019.33 1019.06 1018.72 1018.35 1018.00 1017.74 1017.45 1017.19 1016.97 1016.77 1016.59 1016.43 1016.09 1015.75 1015.31 1013.01 1008.90 1009.56 1010.43 1011.52 1011.72 1010.50 1009.74 1009.28 1009.29 1008.51 1008.05 1007.54 1006.79 1005.22 1004.89 1004.54 1004.19 1004.34 1004.02 1003.29 1002.81 1003.01 1002.80 1003.92 1004.66 1005.13 1005.35 1005.16
1019.57 1019.19 1018.91 1018.66 1018.30 1017.92 1017.57 1017.24 1016.91 1016.65 1016.39 1016.22 1016.16 1015.99 1015.60 1014.49 1010.63 1008.53 1009.63 1010.29 1011.22 1010.74 1010.20 1009.46 1008.99 1008.44 1007.76 1007.12 1006.80 1006.41 1005.77 1005.62 1005.04 1004.84 1005.34 1004.32 1003.99 1002.87 1003.01 1003.12 1004.17 1004.84 1005.62 1005.66 1005.52
1019.43 1019.10 1018.77 1018.41 1018.10 1017.77 1017.37 1017.03 1016.73 1016.40 1016.10 1015.89 1015.72 1015.68 1015.29 1012.96 1009.27 1008.49 1009.51 1010.16 1010.75 1010.61 1009.24 1008.40 1008.10 1007.62 1006.92 1006.46 1006.46 1006.05 1005.57 1005.60 1005.60 1005.49 1005.14 1004.56 1003.82 1003.32 1002.95 1003.48 1004.11 1004.84 1005.45 1005.93 1005.95
1019.33 1018.89 1018.51 1018.16 1017.82 1017.35 1016.92 1016.59 1016.30 1015.99 1015.77 1015.59 1015.48 1015.46 1014.50 1011.16 1007.86 1008.50 1008.46 1009.41 1009.38 1009.75 1008.76 1007.91 1007.44 1007.34 1006.88 1006.27 1006.14 1005.94 1006.02 1005.31 1005.38 1005.01 1004.99 1004.48 1004.21 1003.88 1003.18 1003.43 1003.70 1004.37 1004.39 1005.48 1006.05
1019.13 1018.61 1018.14 1017.78 1017.31 1016.95 1016.60 1016.23 1015.74 1015.34 1015.06 1014.82 1014.87 1014.90 1013.37 1009.06 1008.07 1008.32 1008.20 1008.67 1008.68 1008.89 1008.41 1007.84 1007.48 1007.47 1006.89 1006.41 1006.51 1006.24 1005.82 1005.47 1005.25 1005.07 1004.46 1004.31 1003.51 1002.68 1003.80 1003.48 1003.58 1004.13 1004.65 1005.66 1006.20
1018.68 1018.34 1017.89 1017.44 1017.05 1016.58 1016.06 1015.60 1015.20 1014.69 1014.09 1013.78 1014.15 1014.21 1011.22 1008.04 1008.30 1008.13 1008.18 1008.29 1008.72 1008.72 1008.19 1007.98 1007.67 1007.25 1007.19 1006.46 1006.35 1006.16 1005.59 1004.44 1004.32 1004.69 1004.56 1004.77 1002.26 1003.00 1003.28 1003.42 1003.38 1004.24 1004.72 1005.81 1005.82
1018.47 1017.97 1017.41 1016.93 1016.48 1016.03 1015.58 1015.13 1014.59 1014.10 1013.50 1013.53 1013.85 1013.04 1009.10 1008.11 1007.73 1007.12 1007.21 1007.44 1008.15 1008.47 1008.09 1008.08 1007.49 1007.12 1007.15 1006.49 1005.54 1005.23 1003.83 1003.68 1003.45 1003.43 1003.82 1003.74 1003.07 1002.75 1002.43 1002.60 1003.13 1003.48 1004.25 1005.39 1005.28
1018.17 1017.62 1017.20 1016.73 1016.23 1015.76 1015.34 1014.70 1013.80 1013.77 1013.64 1013.33 1012.97 1012.88 1008.15 1005.61 1005.44 1005.66 1006.57 1006.97 1007.05 1007.29 1007.59 1007.69 1006.84 1006.56 1006.47 1005.55 1004.10 1003.65 1003.63 1002.85 1002.53 1002.71 1003.11 1002.46 1002.22 1002.47 1002.27 1002.71 1002.68 1003.26 1003.33 1004.23 1004.27
1017.83 1017.37 1016.83 1016.38 1015.75 1015.26 1014.76 1014.02 1013.43 1012.99 1012.41 1010.02 1008.83 1007.44 1005.50 1004.90 1005.18 1005.53 1006.09 1006.51 1006.28 1006.27 1005.35 1006.09 1005.75 1004.75 1004.46 1004.81 1004.21 1003.36 1003.16 1002.36 1002.15 1002.16 1002.07 1001.68 1001.59 1001.45 1001.59 1002.53 1002.37 1002.53 1002.87 1003.13 1003.45
1017.72 1017.11 1016.37 1015.88 1015.18 1014.66 1014.34 1012.92 1010.31 1010.13 1008.58 1007.77 1007.14 1006.67 1005.83 1005.34 1004.28 1004.69 1005.68 1005.24 1005.27 1004.72 1004.64 1005.32 1004.20 1004.12 1004.47 1004.43 1004.36 1004.08 1003.26 1002.23 1001.60 1001.23 1001.19 1001.23 1000.96 1000.63 1000.68 1000.69 1001.21 1001.98 1002.36 1002.70 1003.08
1017.06 1016.56 1016.03 1015.18 1014.28 1013.77 1013.23 1011.74 1010.27 1010.02 1007.82 1004.91 1004.06 1004.50 1004.39 1005.09 1003.74 1003.95 1004.53 1003.93 1004.03 1003.81 1003.62 1003.18 1002.87 1003.68 1003.83 1003.75 1003.76 1003.38 1003.17 1002.01 1001.37 1001.15 1000.94 1000.93 1000.21 999.95 999.79 1000.17 1000.65 1001.11 1001.52 1001.61 1002.07
1016.77 1016.30 1015.73 1014.80 1013.60 1012.88 1011.53 1010.36 1010.10 1010.10 1006.80 1002.82 1002.89 1002.08 1002.50 1003.14 1002.73 1002.50 1003.44 1003.11 1002.89 1002.68 1003.14 1002.89 1002.29 1002.58 1002.91 1002.66 1002.82 1002.17 1002.43 1002.45 1001.64 1001.48 1000.09 1000.28 998.27 998.52 998.90 999.41 999.91 1000.30 1000.82 1000.87 1001.47
1015.87 1015.39 1015.06 1014.98 1013.97 1012.62 1010.54 1010.39 1010.00 1009.66 1005.02 1000.55 1000.70 1000.46 1000.25 1000.50 999.69 1000.77 1002.13 1002.24 1001.57 1001.57 1002.45 1001.67 1001.56 1001.76 1001.74 1001.64 1001.88 1001.57 1001.69 1001.92 1001.84 1001.19 1000.31 999.72 998.65 996.55 998.13 998.67 999.22 999.93 1000.60 1001.16 1001.60
1015.15 1014.71 1014.50 1013.43 1012.52 1011.18 1010.84 1010.71 1010.12 1007.75 1002.44 999.53 999.31 999.77 999.96 999.91 998.94 999.42 1000.93 1001.57 1001.05 1000.99 1001.55 1000.86 1001.16 1001.09 1000.78 1001.08 1001.26 1001.36 1001.57 1001.60 1001.54 1001.05 999.99 999.23 998.61 997.12 997.45 998.08 998.89 1000.53 1001.89 1002.64 1003.38
1014.21 1013.50 1013.29 1012.47 1010.54 1009.48 1009.93 1010.40 1008.31 1004.34 1000.63 998.82 998.35 998.91 999.28 999.00 998.74 999.31 999.76 1000.23 999.78 999.95 1000.20 1000.72 1000.54 1000.59 1000.30 1000.45 1000.71 1001.00 1000.77 1000.29 1000.51 1000.01 999.10 998.76 998.88 997.80 998.57 999.43 1000.14 1001.47 1002.54 1003.62 1004.46
1013.52 1012.37 1010.51 1010.31 1010.12 1010.48 1009.51 1008.27 1005.06 1001.54 1000.21 998.76 998.84 999.58 999.48 998.81 998.68 998.62 998.97 998.99 999.36 999.38 999.17 999.59 999.84 999.87 1000.03 999.92 999.59 1000.05 999.90 998.81 998.52 998.33 998.25 999.16 998.66 998.23 1000.01 1000.99 1001.58 1002.38 1003.44 1004.38 1005.15
1012.76 1010.34 1009.10 1009.09 1009.22 1009.59 1008.69 1005.64 1002.28 1000.87 999.80 998.76 998.97 999.38 1000.27 1000.77 1001.59 998.53 997.86 997.79 998.13 998.53 999.00 998.65 999.03 999.40 999.94 999.94 999.67 999.06 999.43 999.15 999.04 998.88 998.12 998.09 999.36 1000.32 1000.69 1001.47 1002.28 1003.24 1004.02 1004.93 1005.46
1012.67 1010.30 1008.36 1008.40 1009.16 1009.17 1007.54 1003.53 1001.23 1000.41 999.61 999.56 999.27 999.66 1000.66 1001.69 1002.05 1000.01 997.86 997.33 997.44 998.00 998.51 998.56 998.82 999.47 999.87 1000.13 999.75 999.71 999.26 999.66 999.50 998.89 998.50 998.47 998.78 998.72 1000.55 1001.64 1002.70 1003.50 1004.44 1005.27 1005.93
1011.66 1009.51 1008.22 1008.70 1009.15 1007.94 1004.87 1002.22 1000.94 1000.31 999.64 999.51 999.91 1000.64 1001.91 1002.66 1002.33 1000.34 998.00 996.90 996.98 997.42 998.08 998.52 998.89 1000.17 1000.45 1000.12 999.74 1000.15 999.69 999.49 999.58 999.46 999.23 999.15 999.52 999.27 1000.34 1001.82 1002.84 1003.72 1004.58 1005.25 1006.03
1012.29 1009.02 1007.82 1008.50 1008.03 1006.06 1003.96 1002.65 1002.31 1000.96 1000.28 999.91 999.64 1000.70 1002.39 1003.31 1003.17 1001.65 999.10 997.42 996.96 997.36 997.85 998.58 999.44 1000.31 1000.50 1001.05 1001.32 1000.76 1000.17 999.62 1000.01 1000.17 1000.36 1000.03 1000.64 1001.41 1001.63 1002.69 1003.60 1004.29 1005.05 1005.83 1006.27
1012.69 1009.25 1006.91 1007.69 1006.26 1004.45 1003.48 1002.39 1002.34 1002.15 1001.61 1000.62 1000.37 1000.63 1002.33 1003.40 1003.82 1002.78 999.81 999.78 998.66 997.90 997.91 999.36 999.92 1001.01 1001.67 1002.11 1001.66 1001.13 1001.25 1001.10 1001.07 1000.99 1000.76 1001.02 1001.77 1002.76 1002.96 1003.50 1004.14 1004.88 1005.71 1006.37 1006.95
1012.93 1008.93 1006.30 1006.90 1006.01 1005.29 1004.04 1002.78 1002.14 1002.11 1002.23 1001.28 1001.23 1001.50 1002.35 1003.14 1003.45 1002.71 1001.03 1000.53 1000.01 999.03 998.89 999.44 1000.83 1000.96 1001.12 1001.56 1001.04 1001.34 1001.56 1001.71 1001.84 1002.02 1002.01 1002.08 1003.82 1003.89 1004.09 1004.27 1004.88 1005.49 1006.11 1006.69 1007.35
1012.40 1009.17 1007.90 1006.50 1005.57 1005.16 1004.62 1003.58 1002.68 1002.15 1001.69 1001.60 1001.38 1001.92 1002.01 1003.05 1003.83 1003.67 1001.54 1001.12 1000.87 1000.63 999.52 999.93 1000.50 1001.43 1002.57 1002.52 1001.78 1001.43 1001.68 1001.95 1001.92 1002.00 1002.21 1002.02 1002.77 1003.34 1004.07 1004.57 1005.27 1006.00 1006.68 1007.29 1007.90
1012.16 1010.65 1009.44 1008.06 1006.38 1005.50 1004.55 1003.72 1003.64 1003.53 1004.11 1002.33 1002.78 1002.40 1002.29 1002.85 1003.63 1003.57 1002.77 1001.99 1000.51 1000.65 1000.40 1000.72 1000.83 1001.73 1002.84 1003.16 1002.65 1002.13 1002.19 1002.34 1002.58 1002.78 1003.15 1003.36 1003.50 1003.77 1004.69 1005.28 1006.08 1006.62 1007.22 1007.56 1008.30
1012.26 1011.48 1011.09 1009.01 1007.67 1005.78 1004.62 1004.44 1004.33 1004.43 1004.70 1004.00 1003.95 1003.94 1003.62 1004.08 1003.63 1003.27 1003.68 1002.39 1000.47 1000.08 1000.31 1000.71 1001.33 1001.91 1002.20 1003.19 1003.07 1002.66 1002.11 1002.40 1002.85 1003.43 1003.70 1003.62 1003.94 1004.67 1005.65 1006.09 1006.78 1007.36 1008.07 1008.70 1009.71
Thickness
5654 5654 5652 5651 5650 5650 5650 5649 5648 5646 5645 5644 5643 5642 5643 5644 5644 5650 5660 5678 5682 5681 5679 5691 5695 5698 5703 5709 5716 5720 5713 5724 5736 5744 5753 5770 5761 5788 5791 5787 5796 5804 5801 5810 5823
5652 5651 5650 5648 5648 5648 5647 5646 5644 5642 5642 5640 5639 5639 5641 5640 5647 5660 5679 5674 5673 5675 5682 5686 5687 5691 5692 5699 5704 5704 5705 5723 5742 5750 5747 5759 5761 5774 5773 5776 5779 5786 5796 5806 5810
5650 5649 5648 5647 5647 5646 5645 5644 5642 5640 5639 5637 5635 5635 5636 5638 5652 5682 5680 5674 5667 5668 5679 5685 5688 5683 5682 5691 5695 5698 5701 5721 5726 5736 5739 5742 5750 5773 5764 5761 5763 5765 5774 5785 5793
5646 5646 5645 5644 5643 5643 5642 5641 5639 5637 5636 5635 5632 5630 5630 5638 5659 5682 5673 5668 5662 5667 5672 5675 5677 5674 5676 5678 5690 5680 5700 5702 5713 5720 5718 5730 5741 5752 5759 5763 5768 5774 5773 5775 5778
5643 5642 5641 5641 5640 5638 5637 5636 5634 5633 5632 5631 5630 5627 5629 5640 5659 5678 5667 5663 5659 5661 5670 5674 5671 5674 5672 5681 5680 5675 5688 5691 5697 5702 5712 5726 5726 5738 5748 5761 5762 5764 5769 5766 5769
5638 5638 5637 5636 5635 5635 5635 5633 5631 5630 5628 5626 5625 5622 5628 5637 5675 5670 5669 5662 5663 5659 5667 5673 5671 5675 5672 5676 5671 5675 5672 5679 5684 5690 5699 5705 5712 5721 5743 5754 5749 5756 5763 5762 5759
5633 5634 5634 5633 5633 5632 5630 5630 5630 5629 5627 5625 5621 5619 5626 5653 5667 5662 5665 5659 5661 5658 5658 5667 5671 5664 5668 5661 5668 5664 5654 5662 5667 5674 5683 5700 5694 5706 5729 5742 5738 5743 5751 5744 5746
5630 5628 5627 5627 5626 5626 5626 5627 5626 5626 5628 5627 5620 5616 5633 5662 5659 5656 5657 5654 5653 5653 5657 5660 5663 5660 5654 5664 5656 5646 5648 5644 5662 5663 5671 5671 5682 5707 5719 5721 5725 5724 5735 5734 5742
5624 5624 5624 5623 5622 5622 5621 5621 5620 5622 5623 5619 5614 5616 5641 5654 5652 5657 5656 5649 5646 5644 5648 5650 5653 5647 5645 5639 5643 5643 5640 5640 5650 5669 5663 5664 5666 5697 5713 5713 5717 5722 5730 5726 5739
5616 5616 5614 5613 5613 5612 5611 5613 5616 5614 5611 5610 5610 5603 5640 5657 5661 5659 5653 5649 5644 5641 5636 5636 5641 5635 5635 5638 5630 5636 5636 5649 5646 5661 5657 5660 5667 5684 5693 5688 5707 5712 5730 5726 5734
5607 5605 5604 5603 5604 5604 5605 5606 5610 5609 5606 5629 5635 5641 5652 5658 5655 5647 5645 5638 5641 5638 5637 5637 5632 5632 5642 5640 5646 5647 5642 5646 5655 5665 5657 5657 5664 5679 5691 5687 5699 5709 5718 5726 5735
5595 5594 5594 5593 5594 5595 5594 5602 5621 5616 5626 5632 5631 5630 5636 5640 5639 5641 5639 5633 5630 5629 5637 5626 5630 5643 5642 5641 5634 5632 5631 5643 5661 5671 5664 5658 5658 5679 5692 5694 5705 5704 5708 5717 5726
5587 5585 5583 5585 5589 5589 5585 5595 5602 5601 5611 5637 5643 5631 5631 5624 5631 5630 5633 5636 5627 5625 5632 5632 5642 5641 5635 5633 5628 5634 5627 5643 5652 5662 5666 5660 5660 5672 5691 5698 5704 5709 5712 5719 5723
5574 5572 5572 5575 5582 5580 5583 5589 5586 5579 5595 5629 5623 5634 5635 5627 5622 5641 5634 5632 5627 5625 5627 5628 5646 5637 5631 5632 5638 5631 5647 5641 5648 5646 5650 5670 5666 5681 5689 5692 5700 5706 5710 5719 5723
5569 5566 5563 5557 5561 5563 5578 5570 5568 5563 5575 5630 5627 5645 5644 5635 5651 5635 5639 5628 5626 5629 5625 5630 5635 5632 5631 5639 5646 5641 5654 5645 5644 5648 5655 5660 5667 5697 5694 5685 5694 5702 5706 5710 5715
5557 5555 5551 5554 5555 5559 5554 5549 5548 5553 5562 5620 5633 5624 5624 5630 5642 5643 5628 5632 5636 5627 5628 5636 5645 5640 5644 5649 5650 5654 5644 5644 5646 5649 5640 5663 5672 5682 5688 5694 5695 5691 5687 5689 5692
5548 5547 5544 5545 5557 5555 5544 5533 5543 5553 5607 5611 5617 5621 5620 5623 5631 5626 5622 5617 5619 5611 5613 5622 5629 5641 5649 5640 5648 5645 5640 5630 5627 5635 5642 5678 5665 5682 5682 5687 5688 5680 5678 5679 5681
5537 5540 5549 5543 5540 5530 5530 5533 5540 5584 5587 5615 5610 5601 5601 5625 5626 5628 5621 5617 5625 5625 5622 5612 5607 5632 5644 5643 5644 5643 5647 5650 5633 5646 5659 5666 5655 5681 5675 5674 5677 5677 5672 5672 5670
5531 5541 5543 5537 5531 5522 5523 5534 5563 5575 5590 5596 5597 5590 5582 5583 5578 5625 5629 5627 5630 5631 5610 5617 5615 5640 5638 5646 5651 5652 5636 5666 5647 5657 5656 5670 5664 5662 5667 5665 5666 5664 5664 5662 5664
5516 5528 5534 5526 5516 5511 5520 5547 5566 5574 5582 5581 5575 5586 5572 5566 5563 5595 5623 5633 5629 5634 5636 5625 5613 5627 5633 5638 5645 5641 5661 5634 5646 5631 5636 5652 5657 5667 5655 5655 5656 5655 5653 5653 5655
5507 5519 5525 5512 5505 5513 5534 5553 5562 5570 5577 5572 5570 5566 5554 5554 5564 5590 5620 5634 5637 5633 5636 5630 5625 5608 5619 5620 5628 5629 5634 5644 5649 5649 5635 5639 5645 5674 5662 5654 5650 5649 5649 5649 5647
5482 5507 5512 5502 5503 5517 5533 5543 5534 5554 5565 5567 5574 5566 5550 5535 5545 5574 5601 5625 5635 5633 5621 5629 5617 5599 5610 5615 5617 5622 5628 5645 5625 5627 5639 5647 5638 5650 5652 5646 5642 5639 5638 5637 5638
5461 5487 5502 5494 5509 5526 5532 5539 5535 5532 5541 5556 5561 5568 5553 5539 5535 5556 5599 5599 5614 5623 5622 5617 5607 5583 5590 5600 5610 5611 5614 5619 5624 5629 5624 5626 5627 5634 5635 5633 5633 5627 5624 5623 5622
5442 5478 5496 5488 5499 5500 5512 5524 5530 5536 5531 5547 5550 5554 5548 5540 5545 5547 5577 5586 5595 5611 5616 5617 5594 5596 5597 5596 5616 5605 5608 5613 5612 5597 5605 5613 5582 5605 5610 5614 5614 5614 5613 5613 5610
5432 5463 5469 5482 5493 5497 5502 5514 5522 5529 5542 5545 5550 5546 5551 5540 5537 5527 5565 5572 5581 5585 5607 5607 5593 5596 5586 5594 5608 5611 5608 5608 5608 5613 5606 5616 5610 5609 5609 5608 5607 5606 5604 5601 5598
5416 5430 5445 5462 5481 5489 5498 5509 5510 5515 5503 5536 5530 5542 5550 5547 5534 5536 5550 5564 5581 5586 5588 5592 5588 5591 5576 5583 5595 5598 5602 5602 5602 5604 5601 5602 5601 5611 5606 5604 5596 5594 5592 5592 5590
5409 5418 5420 5446 5458 5486 5497 5498 5500 5506 5498 5513 5519 5520 5533 5530 5541 5547 5538 5560 5584 5588 5588 5589 5585 5584 5584 5582 5585 5586 5600 5599 5597 5597 5596 5593 5598 5600 5589 5588 5586 5584 5580 5576 5568